time, Switch, Flow(0), Analog(2)
yyyy/mm/dd HH:MM:SS.fff, True=FILTERED|False=TOTAL, L/min, V
2023/06/24 05:00:01.740, True, 4.647, 0.128481
2023/06/24 05:00:02.236, True, 4.713, 0.127871
2023/06/24 05:00:02.740, True, 4.642, 0.129397
2023/06/24 05:00:03.244, True, 4.311, 0.127337
2023/06/24 05:00:03.740, True, 4.049, 0.129625
2023/06/24 05:00:04.244, True, 2.649, 0.129473
2023/06/24 05:00:04.748, True, 2.321, 0.129015
2023/06/24 05:00:05.244, True, 1.685, 0.128099
2023/06/24 05:00:05.748, True, 1.990, 0.128710
2023/06/24 05:00:06.252, True, 1.990, 0.127337
2023/06/24 05:00:06.748, True, 1.685, 0.129244
2023/06/24 05:00:07.252, True, 1.989, 0.126879
2023/06/24 05:00:07.756, True, 1.658, 0.127718
2023/06/24 05:00:08.252, True, 2.025, 0.126268
2023/06/24 05:00:08.756, True, 1.655, 0.126650
2023/06/24 05:00:09.260, True, 1.989, 0.129397
2023/06/24 05:00:09.756, True, 2.022, 0.129320
2023/06/24 05:00:10.260, True, 1.658, 0.128176
2023/06/24 05:00:10.764, True, 1.989, 0.128023
2023/06/24 05:00:11.260, True, 2.023, 0.127489
2023/06/24 05:00:11.764, True, 1.990, 0.127260
2023/06/24 05:00:12.268, True, 1.657, 0.129244
2023/06/24 05:00:12.764, True, 2.025, 0.128786
2023/06/24 05:00:13.268, True, 1.988, 0.128557
2023/06/24 05:00:13.772, True, 1.657, 0.128328
2023/06/24 05:00:14.268, True, 2.022, 0.128862
2023/06/24 05:00:14.772, True, 1.659, 0.130312
2023/06/24 05:00:15.276, True, 1.989, 0.130388
2023/06/24 05:00:15.772, True, 1.685, 0.126879
2023/06/24 05:00:16.276, True, 1.992, 0.128176
2023/06/24 05:00:16.780, True, 1.988, 0.129091
2023/06/24 05:00:17.284, True, 1.658, 0.130159
2023/06/24 05:00:17.780, True, 2.024, 0.127337
2023/06/24 05:00:18.283, True, 1.659, 0.127871
2023/06/24 05:00:18.788, True, 1.990, 0.129320
2023/06/24 05:00:19.284, True, 2.018, 0.126040
2023/06/24 05:00:19.788, True, 1.658, 0.128405
2023/06/24 05:00:20.292, True, 1.993, 0.130236
2023/06/24 05:00:20.795, True, 1.986, 0.127794
2023/06/24 05:00:21.291, True, 1.685, 0.129015
2023/06/24 05:00:21.796, True, 1.990, 0.129091
2023/06/24 05:00:22.292, True, 2.022, 0.126268
2023/06/24 05:00:22.795, True, 1.990, 0.129168
2023/06/24 05:00:23.300, True, 1.993, 0.125277
2023/06/24 05:00:23.796, True, 1.682, 0.128405
2023/06/24 05:00:24.299, True, 1.991, 0.128023
2023/06/24 05:00:24.804, True, 1.657, 0.129854
2023/06/24 05:00:25.300, True, 2.022, 0.128862
2023/06/24 05:00:25.804, True, 1.990, 0.128634
2023/06/24 05:00:26.308, True, 1.658, 0.130388
2023/06/24 05:00:26.804, True, 2.021, 0.127108
2023/06/24 05:00:27.308, True, 1.990, 0.127642
2023/06/24 05:00:27.812, True, 1.990, 0.129015
2023/06/24 05:00:28.308, True, 1.684, 0.129320
2023/06/24 05:00:28.812, True, 1.989, 0.127947
2023/06/24 05:00:29.316, True, 1.993, 0.129397
2023/06/24 05:00:29.812, True, 1.683, 0.127871
2023/06/24 05:00:30.316, True, 1.988, 0.129091
2023/06/24 05:00:30.820, True, 1.991, 0.127108
2023/06/24 05:00:31.316, True, 2.023, 0.128405
2023/06/24 05:00:31.820, True, 1.656, 0.129168
2023/06/24 05:00:32.315, True, 2.021, 0.130388
2023/06/24 05:00:32.820, True, 1.992, 0.129549
2023/06/24 05:00:33.324, True, 1.658, 0.128099
2023/06/24 05:00:33.820, True, 2.022, 0.129931
2023/06/24 05:00:34.324, True, 1.990, 0.127413
2023/06/24 05:00:34.828, True, 1.657, 0.129778
2023/06/24 05:00:35.323, True, 2.025, 0.128176
2023/06/24 05:00:35.828, True, 1.655, 0.128481
2023/06/24 05:00:36.332, True, 1.992, 0.128557
2023/06/24 05:00:36.836, True, 1.987, 0.130159
2023/06/24 05:00:37.332, True, 1.687, 0.128023
2023/06/24 05:00:37.836, True, 1.990, 0.129778
2023/06/24 05:00:38.339, True, 1.987, 0.130770
2023/06/24 05:00:38.836, True, 1.687, 0.131762
2023/06/24 05:00:39.340, True, 1.657, 0.133288
2023/06/24 05:00:39.844, True, 1.990, 0.131533
2023/06/24 05:00:40.348, True, 1.986, 0.131456
2023/06/24 05:00:40.843, True, 1.685, 0.133288
2023/06/24 05:00:41.348, True, 1.990, 0.134737
2023/06/24 05:00:41.852, True, 1.658, 0.131533
2023/06/24 05:00:42.348, True, 2.026, 0.133059
2023/06/24 05:00:42.852, True, 1.655, 0.133288
2023/06/24 05:00:43.356, True, 1.990, 0.134966
2023/06/24 05:00:43.852, True, 2.022, 0.134737
2023/06/24 05:00:44.356, True, 1.659, 0.135424
2023/06/24 05:00:44.860, True, 1.989, 0.135271
2023/06/24 05:00:45.356, True, 1.685, 0.136110
2023/06/24 05:00:45.860, True, 1.990, 0.133745
2023/06/24 05:00:46.356, True, 1.685, 0.136339
2023/06/24 05:00:46.860, True, 1.658, 0.137560
2023/06/24 05:00:47.364, True, 1.990, 0.136187
2023/06/24 05:00:47.860, True, 1.685, 0.137942
2023/06/24 05:00:48.364, True, 1.990, 0.136034
2023/06/24 05:00:48.868, True, 1.991, 0.138247
2023/06/24 05:00:49.364, True, 1.683, 0.137560
2023/06/24 05:00:49.868, True, 1.990, 0.136797
2023/06/24 05:00:50.372, True, 1.990, 0.139620
2023/06/24 05:00:50.868, True, 1.685, 0.137942
2023/06/24 05:00:51.372, True, 1.990, 0.139544
2023/06/24 05:00:51.868, True, 2.021, 0.138705
2023/06/24 05:00:52.372, True, 1.990, 0.140764
2023/06/24 05:00:52.876, True, 1.658, 0.139620
2023/06/24 05:00:53.371, True, 2.022, 0.140307
2023/06/24 05:00:53.876, True, 1.990, 0.140612
2023/06/24 05:00:54.380, True, 1.658, 0.139620
2023/06/24 05:00:54.876, True, 2.022, 0.140078
2023/06/24 05:00:55.380, True, 1.658, 0.141222
2023/06/24 05:00:55.884, True, 1.990, 0.139467
2023/06/24 05:00:56.380, True, 2.022, 0.141909
2023/06/24 05:00:56.884, True, 1.658, 0.139544
2023/06/24 05:00:57.388, True, 1.989, 0.142748
2023/06/24 05:00:57.883, True, 2.022, 0.138705
2023/06/24 05:00:58.388, True, 1.658, 0.140154
2023/06/24 05:00:58.892, True, 1.990, 0.140841
2023/06/24 05:00:59.388, True, 2.022, 0.141451
2023/06/24 05:00:59.892, True, 1.989, 0.140536
2023/06/24 05:01:00.396, True, 1.658, 0.140993
2023/06/24 05:01:00.892, True, 2.022, 0.139544
2023/06/24 05:01:01.396, True, 1.990, 0.141299
2023/06/24 05:01:01.900, True, 1.658, 0.141451
2023/06/24 05:01:02.396, True, 1.685, 0.141680
2023/06/24 05:01:02.900, True, 1.658, 0.141756
2023/06/24 05:01:03.404, True, 1.658, 0.141527
2023/06/24 05:01:03.908, True, 1.989, 0.140993
2023/06/24 05:01:04.404, True, 1.685, 0.140154
2023/06/24 05:01:04.908, True, 1.990, 0.142061
2023/06/24 05:01:05.411, True, 1.989, 0.143282
2023/06/24 05:01:05.908, True, 1.685, 0.141222
2023/06/24 05:01:06.412, True, 1.990, 0.141604
2023/06/24 05:01:06.916, True, 1.989, 0.141909
2023/06/24 05:01:07.412, True, 2.022, 0.142443
2023/06/24 05:01:07.916, True, 1.990, 0.141680
2023/06/24 05:01:08.420, True, 1.658, 0.142901
2023/06/24 05:01:08.916, True, 2.022, 0.141299
2023/06/24 05:01:09.420, True, 1.990, 0.142138
2023/06/24 05:01:09.924, True, 1.661, 0.141909
2023/06/24 05:01:10.420, True, 1.682, 0.139162
2023/06/24 05:01:10.924, True, 1.990, 0.141222
2023/06/24 05:01:11.420, True, 2.022, 0.143511
2023/06/24 05:01:11.924, True, 1.660, 0.140459
2023/06/24 05:01:12.428, True, 1.988, 0.141451
2023/06/24 05:01:12.932, True, 1.990, 0.142596
2023/06/24 05:01:13.428, True, 1.685, 0.141146
2023/06/24 05:01:13.932, True, 1.989, 0.142672
2023/06/24 05:01:14.428, True, 1.685, 0.142443
2023/06/24 05:01:14.932, True, 1.990, 0.140841
2023/06/24 05:01:15.436, True, 1.658, 0.140002
2023/06/24 05:01:15.932, True, 2.022, 0.143893
2023/06/24 05:01:16.436, True, 1.990, 0.139620
2023/06/24 05:01:16.940, True, 1.990, 0.139544
2023/06/24 05:01:17.436, True, 1.685, 0.143435
2023/06/24 05:01:17.940, True, 1.989, 0.140536
2023/06/24 05:01:18.436, True, 2.023, 0.143893
2023/06/24 05:01:18.940, True, 1.992, 0.141070
2023/06/24 05:01:19.444, True, 1.987, 0.140459
2023/06/24 05:01:19.948, True, 1.658, 0.141070
2023/06/24 05:01:20.444, True, 2.022, 0.140383
2023/06/24 05:01:20.948, True, 1.658, 0.141146
2023/06/24 05:01:21.452, True, 1.990, 0.141909
2023/06/24 05:01:21.948, True, 1.685, 0.140154
2023/06/24 05:01:22.452, True, 1.658, 0.140154
2023/06/24 05:01:22.956, True, 1.989, 0.142519
2023/06/24 05:01:23.452, True, 1.685, 0.140154
2023/06/24 05:01:23.956, True, 1.658, 0.141451
2023/06/24 05:01:24.460, True, 1.990, 0.140307
2023/06/24 05:01:24.956, True, 1.685, 0.140154
2023/06/24 05:01:25.460, True, 1.991, 0.140612
2023/06/24 05:01:25.964, True, 1.989, 0.141909
2023/06/24 05:01:26.460, True, 1.685, 0.141985
2023/06/24 05:01:26.964, True, 1.990, 0.141527
2023/06/24 05:01:27.468, True, 1.658, 0.139315
2023/06/24 05:01:27.964, True, 2.022, 0.142290
2023/06/24 05:01:28.468, True, 1.990, 0.140230
2023/06/24 05:01:28.972, True, 1.658, 0.141146
2023/06/24 05:01:29.468, True, 2.022, 0.140154
2023/06/24 05:01:29.972, True, 1.990, 0.140002
2023/06/24 05:01:30.476, True, 1.990, 0.142061
2023/06/24 05:01:30.972, True, 1.685, 0.141222
2023/06/24 05:01:31.476, True, 1.989, 0.138323
2023/06/24 05:01:31.980, True, 1.991, 0.140841
2023/06/24 05:01:32.476, True, 2.021, 0.141680
2023/06/24 05:01:32.980, True, 1.658, 0.140307
2023/06/24 05:01:33.476, True, 2.022, 0.141527
2023/06/24 05:01:33.980, True, 1.990, 0.140230
2023/06/24 05:01:34.484, True, 1.658, 0.140764
2023/06/24 05:01:34.980, True, 2.022, 0.139315
2023/06/24 05:01:35.484, True, 1.660, 0.139315
2023/06/24 05:01:35.988, True, 1.987, 0.141070
2023/06/24 05:01:36.484, True, 1.685, 0.139849
2023/06/24 05:01:36.988, True, 1.989, 0.139696
2023/06/24 05:01:37.492, True, 1.658, 0.140536
2023/06/24 05:01:37.988, True, 2.022, 0.141756
2023/06/24 05:01:38.492, True, 1.989, 0.139773
2023/06/24 05:01:38.996, True, 1.658, 0.140078
2023/06/24 05:01:39.491, True, 1.685, 0.140154
2023/06/24 05:01:39.996, True, 1.990, 0.138857
2023/06/24 05:01:40.500, True, 1.658, 0.140230
2023/06/24 05:01:40.996, True, 2.022, 0.141756
2023/06/24 05:01:41.500, True, 1.658, 0.140078
2023/06/24 05:01:42.004, True, 1.990, 0.140764
2023/06/24 05:01:42.500, True, 1.685, 0.139010
2023/06/24 05:01:43.004, True, 1.990, 0.139925
2023/06/24 05:01:43.508, True, 1.658, 0.140002
2023/06/24 05:01:44.004, True, 2.022, 0.141222
2023/06/24 05:01:44.508, True, 1.658, 0.139620
2023/06/24 05:01:45.012, True, 1.990, 0.138933
2023/06/24 05:01:45.508, True, 2.022, 0.138552
2023/06/24 05:01:46.012, True, 1.989, 0.140917
2023/06/24 05:01:46.516, True, 1.658, 0.138933
2023/06/24 05:01:47.012, True, 2.022, 0.139315
2023/06/24 05:01:47.516, True, 1.658, 0.140764
2023/06/24 05:01:48.020, True, 1.990, 0.141451
2023/06/24 05:01:48.516, True, 1.684, 0.139162
2023/06/24 05:01:49.020, True, 1.990, 0.137942
2023/06/24 05:01:49.516, True, 2.022, 0.139544
2023/06/24 05:01:50.020, True, 1.658, 0.139773
2023/06/24 05:01:50.524, True, 1.989, 0.139315
2023/06/24 05:01:51.020, True, 1.685, 0.142138
2023/06/24 05:01:51.524, True, 1.989, 0.139467
2023/06/24 05:01:52.028, True, 1.990, 0.139315
2023/06/24 05:01:52.524, True, 1.685, 0.140383
2023/06/24 05:01:53.028, True, 1.993, 0.140536
2023/06/24 05:01:53.532, True, 1.986, 0.138705
2023/06/24 05:01:54.036, True, 1.993, 0.139849
2023/06/24 05:01:54.532, True, 1.682, 0.138552
2023/06/24 05:01:55.036, True, 1.990, 0.140307
2023/06/24 05:01:55.531, True, 2.022, 0.138705
2023/06/24 05:01:56.036, True, 1.658, 0.139086
2023/06/24 05:01:56.539, True, 1.990, 0.138933
2023/06/24 05:01:57.036, True, 1.685, 0.136034
2023/06/24 05:01:57.540, True, 1.990, 0.137636
2023/06/24 05:01:58.043, True, 1.989, 0.139391
2023/06/24 05:01:58.539, True, 1.685, 0.138933
2023/06/24 05:01:59.044, True, 1.990, 0.139086
2023/06/24 05:01:59.548, True, 1.990, 0.137026
2023/06/24 05:02:00.043, True, 1.687, 0.137865
2023/06/24 05:02:00.548, True, 1.987, 0.136263
2023/06/24 05:02:01.052, True, 1.657, 0.140154
2023/06/24 05:02:01.547, True, 2.022, 0.138705
2023/06/24 05:02:02.052, True, 1.990, 0.138552
2023/06/24 05:02:02.556, True, 1.658, 0.138933
2023/06/24 05:02:03.052, True, 2.023, 0.137179
2023/06/24 05:02:03.555, True, 1.657, 0.139467
2023/06/24 05:02:04.060, True, 1.990, 0.137179
2023/06/24 05:02:04.556, True, 1.685, 0.138857
2023/06/24 05:02:05.060, True, 1.990, 0.138247
2023/06/24 05:02:05.564, True, 1.989, 0.139620
2023/06/24 05:02:06.068, True, 1.660, 0.140154
2023/06/24 05:02:06.564, True, 2.024, 0.136721
2023/06/24 05:02:07.067, True, 1.655, 0.139315
2023/06/24 05:02:07.572, True, 1.990, 0.137636
2023/06/24 05:02:08.068, True, 1.688, 0.137407
2023/06/24 05:02:08.572, True, 1.986, 0.136339
2023/06/24 05:02:09.076, True, 1.990, 0.137865
2023/06/24 05:02:09.572, True, 1.685, 0.136416
2023/06/24 05:02:10.076, True, 1.991, 0.136263
2023/06/24 05:02:10.580, True, 1.988, 0.137560
2023/06/24 05:02:11.076, True, 1.685, 0.139544
2023/06/24 05:02:11.580, True, 1.992, 0.136568
2023/06/24 05:02:12.084, True, 1.656, 0.138323
2023/06/24 05:02:12.580, True, 2.022, 0.138933
2023/06/24 05:02:13.084, True, 1.990, 0.137789
2023/06/24 05:02:13.588, True, 1.659, 0.137560
2023/06/24 05:02:14.084, True, 2.021, 0.138552
2023/06/24 05:02:14.588, True, 1.658, 0.138170
2023/06/24 05:02:15.092, True, 1.990, 0.139010
2023/06/24 05:02:15.588, True, 1.686, 0.138399
2023/06/24 05:02:16.092, True, 1.988, 0.138705
2023/06/24 05:02:16.596, True, 1.990, 0.137484
2023/06/24 05:02:17.092, True, 1.685, 0.138933
2023/06/24 05:02:17.596, True, 1.990, 0.138628
2023/06/24 05:02:18.100, True, 1.658, 0.135424
2023/06/24 05:02:18.596, True, 2.022, 0.138476
2023/06/24 05:02:19.100, True, 1.658, 0.138323
2023/06/24 05:02:19.596, True, 1.685, 0.138094
2023/06/24 05:02:20.100, True, 1.990, 0.137407
2023/06/24 05:02:20.604, True, 1.990, 0.138247
2023/06/24 05:02:21.100, True, 1.685, 0.136110
2023/06/24 05:02:21.604, True, 1.989, 0.137484
2023/06/24 05:02:22.108, True, 1.992, 0.137560
2023/06/24 05:02:22.612, True, 1.657, 0.136645
2023/06/24 05:02:23.108, True, 2.021, 0.137560
2023/06/24 05:02:23.612, True, 1.661, 0.139925
2023/06/24 05:02:24.108, True, 2.021, 0.136721
2023/06/24 05:02:24.612, True, 1.986, 0.137331
2023/06/24 05:02:25.116, True, 1.990, 0.137942
2023/06/24 05:02:25.620, True, 1.657, 0.136721
2023/06/24 05:02:26.116, True, 2.022, 0.135958
2023/06/24 05:02:26.620, True, 1.659, 0.137484
2023/06/24 05:02:27.123, True, 1.657, 0.135653
2023/06/24 05:02:27.620, True, 2.022, 0.136568
2023/06/24 05:02:28.124, True, 1.990, 0.137865
2023/06/24 05:02:28.628, True, 1.658, 0.137102
2023/06/24 05:02:29.124, True, 2.025, 0.135271
2023/06/24 05:02:29.628, True, 1.656, 0.135576
2023/06/24 05:02:30.132, True, 1.988, 0.137026
2023/06/24 05:02:30.628, True, 1.685, 0.136873
2023/06/24 05:02:31.132, True, 1.992, 0.138170
2023/06/24 05:02:31.636, True, 1.988, 0.140307
2023/06/24 05:02:32.132, True, 2.022, 0.137331
2023/06/24 05:02:32.636, True, 1.658, 0.135424
2023/06/24 05:02:33.140, True, 1.990, 0.135805
2023/06/24 05:02:33.635, True, 2.022, 0.136110
2023/06/24 05:02:34.140, True, 1.658, 0.137255
2023/06/24 05:02:34.644, True, 1.990, 0.136492
2023/06/24 05:02:35.139, True, 2.025, 0.135348
2023/06/24 05:02:35.644, True, 1.986, 0.137102
2023/06/24 05:02:36.148, True, 1.990, 0.135958
2023/06/24 05:02:36.652, True, 1.658, 0.136492
2023/06/24 05:02:37.148, True, 2.023, 0.135195
2023/06/24 05:02:37.651, True, 1.657, 0.137102
2023/06/24 05:02:38.148, True, 2.022, 0.137407
2023/06/24 05:02:38.652, True, 1.990, 0.136873
2023/06/24 05:02:39.156, True, 1.989, 0.134890
2023/06/24 05:02:39.652, True, 1.685, 0.136187
2023/06/24 05:02:40.156, True, 1.990, 0.136568
2023/06/24 05:02:40.660, True, 1.658, 0.136721
2023/06/24 05:02:41.156, True, 2.022, 0.136034
2023/06/24 05:02:41.660, True, 1.660, 0.138094
2023/06/24 05:02:42.164, True, 1.987, 0.135042
2023/06/24 05:02:42.660, True, 1.685, 0.136034
2023/06/24 05:02:43.164, True, 1.990, 0.137102
2023/06/24 05:02:43.668, True, 1.990, 0.135500
2023/06/24 05:02:44.164, True, 2.025, 0.135958
2023/06/24 05:02:44.668, True, 1.656, 0.138323
2023/06/24 05:02:45.172, True, 1.990, 0.133593
2023/06/24 05:02:45.668, True, 2.022, 0.137484
2023/06/24 05:02:46.172, True, 1.659, 0.133974
2023/06/24 05:02:46.676, True, 1.988, 0.135882
2023/06/24 05:02:47.172, True, 2.022, 0.135119
2023/06/24 05:02:47.676, True, 1.990, 0.136263
2023/06/24 05:02:48.180, True, 1.989, 0.137331
2023/06/24 05:02:48.684, True, 1.658, 0.137102
2023/06/24 05:02:49.180, True, 2.022, 0.136034
2023/06/24 05:02:49.684, True, 1.993, 0.136721
2023/06/24 05:02:50.179, True, 2.018, 0.135500
2023/06/24 05:02:50.684, True, 1.658, 0.136797
2023/06/24 05:02:51.188, True, 1.658, 0.135576
2023/06/24 05:02:51.684, True, 2.022, 0.135042
2023/06/24 05:02:52.188, True, 1.658, 0.134661
2023/06/24 05:02:52.692, True, 1.990, 0.136339
2023/06/24 05:02:53.188, True, 1.685, 0.134432
2023/06/24 05:02:53.692, True, 1.993, 0.136110
2023/06/24 05:02:54.196, True, 1.989, 0.136339
2023/06/24 05:02:54.692, True, 1.684, 0.136187
2023/06/24 05:02:55.196, True, 1.987, 0.135500
2023/06/24 05:02:55.700, True, 1.660, 0.136034
2023/06/24 05:02:56.196, True, 2.020, 0.135424
2023/06/24 05:02:56.700, True, 1.989, 0.133974
2023/06/24 05:02:57.204, True, 1.991, 0.133974
2023/06/24 05:02:57.699, True, 1.684, 0.135195
2023/06/24 05:02:58.204, True, 1.990, 0.134661
2023/06/24 05:02:58.700, True, 1.685, 0.133364
2023/06/24 05:02:59.204, True, 1.990, 0.137560
2023/06/24 05:02:59.708, True, 1.989, 0.134356
2023/06/24 05:03:00.212, True, 1.990, 0.136187
2023/06/24 05:03:00.708, True, 2.022, 0.136416
2023/06/24 05:03:01.212, True, 1.991, 0.132677
2023/06/24 05:03:01.716, True, 1.657, 0.135882
2023/06/24 05:03:02.212, True, 2.024, 0.134813
2023/06/24 05:03:02.716, True, 1.658, 0.135348
2023/06/24 05:03:03.220, True, 1.989, 0.133898
2023/06/24 05:03:03.716, True, 2.019, 0.135653
2023/06/24 05:03:04.220, True, 1.658, 0.135271
2023/06/24 05:03:04.724, True, 1.989, 0.135805
2023/06/24 05:03:05.220, True, 2.025, 0.134051
2023/06/24 05:03:05.724, True, 1.986, 0.134585
2023/06/24 05:03:06.228, True, 1.990, 0.134203
2023/06/24 05:03:06.724, True, 2.021, 0.135271
2023/06/24 05:03:07.228, True, 1.990, 0.135653
2023/06/24 05:03:07.731, True, 1.660, 0.135271
2023/06/24 05:03:08.227, True, 2.019, 0.133440
2023/06/24 05:03:08.732, True, 1.990, 0.133974
2023/06/24 05:03:09.236, True, 1.658, 0.134432
2023/06/24 05:03:09.732, True, 2.022, 0.134432
2023/06/24 05:03:10.236, True, 1.990, 0.135805
2023/06/24 05:03:10.740, True, 1.990, 0.134890
2023/06/24 05:03:11.236, True, 1.684, 0.134966
2023/06/24 05:03:11.740, True, 1.990, 0.134051
2023/06/24 05:03:12.244, True, 1.993, 0.134432
2023/06/24 05:03:12.740, True, 1.682, 0.135958
2023/06/24 05:03:13.244, True, 1.659, 0.133059
2023/06/24 05:03:13.748, True, 1.988, 0.134585
2023/06/24 05:03:14.244, True, 2.022, 0.133364
2023/06/24 05:03:14.748, True, 1.658, 0.135348
2023/06/24 05:03:15.252, True, 1.990, 0.134585
2023/06/24 05:03:15.748, True, 1.685, 0.135653
2023/06/24 05:03:16.252, True, 1.990, 0.134813
2023/06/24 05:03:16.756, True, 1.990, 0.134203
2023/06/24 05:03:17.252, True, 2.021, 0.135119
2023/06/24 05:03:17.756, True, 1.990, 0.135500
2023/06/24 05:03:18.260, True, 1.989, 0.134890
2023/06/24 05:03:18.756, True, 1.685, 0.134813
2023/06/24 05:03:19.260, True, 1.990, 0.136110
2023/06/24 05:03:19.763, True, 1.993, 0.133211
2023/06/24 05:03:20.260, True, 1.682, 0.133440
2023/06/24 05:03:20.764, True, 1.990, 0.134127
2023/06/24 05:03:21.268, True, 1.660, 0.135271
2023/06/24 05:03:21.764, True, 2.020, 0.133669
2023/06/24 05:03:22.267, True, 1.990, 0.133745
2023/06/24 05:03:22.764, True, 2.022, 0.136568
2023/06/24 05:03:23.268, True, 1.660, 0.133669
2023/06/24 05:03:23.772, True, 1.988, 0.134203
2023/06/24 05:03:24.275, True, 1.658, 0.133516
2023/06/24 05:03:24.772, True, 2.021, 0.132448
2023/06/24 05:03:25.276, True, 1.990, 0.134890
2023/06/24 05:03:25.779, True, 1.992, 0.134890
2023/06/24 05:03:26.276, True, 1.683, 0.133440
2023/06/24 05:03:26.780, True, 1.990, 0.134737
2023/06/24 05:03:27.276, True, 2.022, 0.133974
2023/06/24 05:03:27.779, True, 1.658, 0.134356
2023/06/24 05:03:28.284, True, 1.990, 0.134966
2023/06/24 05:03:28.780, True, 2.022, 0.133364
2023/06/24 05:03:29.283, True, 1.990, 0.134356
2023/06/24 05:03:29.788, True, 1.658, 0.133440
2023/06/24 05:03:30.291, True, 1.993, 0.133669
2023/06/24 05:03:30.787, True, 1.682, 0.133135
2023/06/24 05:03:31.292, True, 1.990, 0.133288
2023/06/24 05:03:31.796, True, 1.990, 0.135119
2023/06/24 05:03:32.292, True, 1.685, 0.132067
2023/06/24 05:03:32.796, True, 1.990, 0.133593
2023/06/24 05:03:33.300, True, 1.659, 0.133364
2023/06/24 05:03:33.796, True, 2.020, 0.133593
2023/06/24 05:03:34.300, True, 1.990, 0.133135
2023/06/24 05:03:34.804, True, 1.659, 0.136339
2023/06/24 05:03:35.300, True, 2.021, 0.133974
2023/06/24 05:03:35.804, True, 1.992, 0.132982
2023/06/24 05:03:36.307, True, 1.987, 0.133135
2023/06/24 05:03:36.811, True, 1.659, 0.134051
2023/06/24 05:03:37.307, True, 1.684, 0.132906
2023/06/24 05:03:37.812, True, 1.657, 0.134356
2023/06/24 05:03:38.315, True, 1.992, 0.134737
2023/06/24 05:03:38.812, True, 1.684, 0.133593
2023/06/24 05:03:39.316, True, 1.659, 0.133745
2023/06/24 05:03:39.812, True, 2.018, 0.132753
2023/06/24 05:03:40.315, True, 1.992, 0.134432
2023/06/24 05:03:40.820, True, 1.658, 0.133288
2023/06/24 05:03:41.324, True, 1.987, 0.134661
2023/06/24 05:03:41.820, True, 2.022, 0.134661
2023/06/24 05:03:42.324, True, 1.990, 0.134508
2023/06/24 05:03:42.828, True, 1.660, 0.133822
2023/06/24 05:03:43.324, True, 2.022, 0.134661
2023/06/24 05:03:43.828, True, 1.989, 0.133822
2023/06/24 05:03:44.332, True, 1.990, 0.134890
2023/06/24 05:03:44.828, True, 1.682, 0.133288
2023/06/24 05:03:45.332, True, 1.990, 0.132830
2023/06/24 05:03:45.836, True, 1.658, 0.133669
2023/06/24 05:03:46.331, True, 2.026, 0.133364
2023/06/24 05:03:46.836, True, 1.655, 0.132982
2023/06/24 05:03:47.340, True, 1.990, 0.135882
2023/06/24 05:03:47.836, True, 2.022, 0.132372
2023/06/24 05:03:48.339, True, 1.660, 0.134966
2023/06/24 05:03:48.844, True, 1.987, 0.134661
2023/06/24 05:03:49.340, True, 2.022, 0.133440
2023/06/24 05:03:49.844, True, 1.660, 0.132372
2023/06/24 05:03:50.348, True, 1.988, 0.133135
2023/06/24 05:03:50.844, True, 1.686, 0.132219
2023/06/24 05:03:51.348, True, 1.991, 0.133974
2023/06/24 05:03:51.852, True, 1.987, 0.136187
2023/06/24 05:03:52.348, True, 1.685, 0.131838
2023/06/24 05:03:52.852, True, 1.994, 0.133364
2023/06/24 05:03:53.348, True, 2.018, 0.133822
2023/06/24 05:03:53.852, True, 1.989, 0.131075
2023/06/24 05:03:54.356, True, 1.990, 0.132982
2023/06/24 05:03:54.852, True, 1.685, 0.132601
2023/06/24 05:03:55.356, True, 1.991, 0.132525
2023/06/24 05:03:55.860, True, 1.657, 0.132677
2023/06/24 05:03:56.356, True, 2.022, 0.134279
2023/06/24 05:03:56.860, True, 1.990, 0.132296
2023/06/24 05:03:57.364, True, 1.659, 0.133135
2023/06/24 05:03:57.860, True, 2.020, 0.133593
2023/06/24 05:03:58.364, True, 1.990, 0.129702
2023/06/24 05:03:58.868, True, 1.658, 0.130922
2023/06/24 05:03:59.372, True, 1.990, 0.131991
2023/06/24 05:03:59.868, True, 2.022, 0.132525
2023/06/24 05:04:00.372, True, 1.990, 0.133440
2023/06/24 05:04:00.876, True, 1.658, 0.131685
2023/06/24 05:04:01.372, True, 2.022, 0.133822
2023/06/24 05:04:01.876, True, 1.992, 0.132067
2023/06/24 05:04:02.380, True, 1.988, 0.134279
2023/06/24 05:04:02.876, True, 1.685, 0.133745
2023/06/24 05:04:03.380, True, 1.989, 0.133593
2023/06/24 05:04:03.876, True, 2.022, 0.133364
2023/06/24 05:04:04.380, True, 1.991, 0.132067
2023/06/24 05:04:04.884, True, 1.988, 0.131533
2023/06/24 05:04:05.380, True, 1.685, 0.133364
2023/06/24 05:04:05.884, True, 1.990, 0.131228
2023/06/24 05:04:06.388, True, 1.990, 0.135653
2023/06/24 05:04:06.884, True, 1.687, 0.132601
2023/06/24 05:04:07.388, True, 1.987, 0.134127
2023/06/24 05:04:07.892, True, 1.990, 0.132296
2023/06/24 05:04:08.388, True, 1.685, 0.131838
2023/06/24 05:04:08.892, True, 1.990, 0.134508
2023/06/24 05:04:09.396, True, 1.990, 0.131685
2023/06/24 05:04:09.892, True, 1.685, 0.133974
2023/06/24 05:04:10.396, True, 1.990, 0.130312
2023/06/24 05:04:10.900, True, 1.990, 0.130846